www.pogodaiklimat.ru

Погода и климат >> Архив погоды >> Индия >> Nagpur


ПОГОДА в Nagpur

  • Прогноз погоды в Nagpur
  • Монитор погоды в Nagpur
  • Климат города

АРХИВ ПОГОДЫ в Nagpur

Время (UTC), дата Ветер
(напр.,м/с)
 
Видим.   Явления Облачность Т
(С)
Тd
(С)
f
(%)
Тe
(С)
Тes
(С)
Комфортность P
(гПа)
Po
(гПа)
Тmin
(С)
Tmax
(С)
R
(мм)
R24
(мм)
S
(см)
06 23.04 З 6 4000 м ясно +39.6 +13.6 22 +40 +49 очень
душно
1005.7 1006.0
09 23.04 З 5 4000 м ясно +42.6 +13.1 18 +42 +51 опасность
перегрева
1002.0 1002.0
12 23.04 З 7 4000 м ясно +39.4 +12.2 20 +39 +39 очень
жарко
1001.3 1001.0 +42.9
15 23.04 З 2 2000 м ясно +34.8 +11.6 25 +35 +35 очень
жарко
1003.9 1004.0
18 23.04 З 1 2000 м ясно +28.0 +8.7 30 +28 +28 жарко 1005.2 1005.0
21 23.04 СЗ 2 2000 м ясно +27.4 +9.4 32 +28 +28 жарко 1004.1 1004.0
00 24.04 СЗ 3 2000 м мгла ясно +23.8 +8.5 38 +24 +24 комфорт 1005.6 1006.0
03 24.04 СЗ 5 4000 м ясно +33.0 +4.3 16 +33 +37 жарко 1007.9 1008.0 +23.2
06 24.04 З 7 4000 м ясно +38.4 +0.2 9 +35 +40 очень
жарко
1006.4 1006.0
09 24.04 СЗ 7 4000 м ясно +41.6 -0.7 7 +38 +42 очень
жарко
1003.5 1004.0
12 24.04 З 7 4000 м ясно +39.4 +1.3 9 +36 +36 очень
жарко
1002.4 1002.0 +42.1
15 24.04 З 4 4000 м мгла ясно +34.4 +6.2 17 +32 +32 жарко 1005.3 1005.0
18 24.04 З 2 2000 м мгла ясно +29.2 +5.6 22 +28 +28 жарко 1006.5 1007.0
21 24.04 З 3 2000 м мгла ясно +28.4 +6.0 24 +27 +27 жарко 1005.7 1006.0
00 25.04 СЗ 3 2000 м мгла ясно +28.0 +6.5 26 +27 +27 жарко 1006.7 1007.0
03 25.04 СЗ 4 4000 м мгла ясно +32.4 +10.1 25 +32 +37 жарко 1008.3 1008.0 +26.5
06 25.04 З 6 4000 м ясно +38.6 +7.7 15 +36 +44 очень
жарко
1006.7 1007.0
09 25.04 З 7 4000 м 1/1 750 м
[Cu hum]
+41.0 +6.2 12 +38 +43 очень
жарко
1003.5 1004.0
12 25.04 З 5 4000 м 1/1 750 м
[Cu hum]
+39.2 +7.0 14 +37 +37 очень
жарко
1002.2 1002.0 +41.8
15 25.04 СЗ 1 4000 м мгла ясно +32.8 +11.8 28 +33 +33 жарко 1004.6 1005.0
18 25.04 СЗ 2 4000 м мгла ясно +29.2 +11.2 33 +30 +30 жарко 1005.7 1006.0
21 25.04 С 1 4000 м мгла ясно +26.2 +11.0 39 +27 +27 жарко 1004.9 1005.0
00 26.04 СЗ 3 4000 м мгла 4/0
[Ac trans Ci fib]
+27.8 +10.5 34 +28 +28 жарко 1005.5 1006.0
03 26.04 СЗ 6 4000 м 6/0
[Ac trans Cs]
+32.8 +11.3 27 +33 +35 жарко 1007.6 1008.0 +25.8
06 26.04 С 4 4000 м 3/0
[Ac trans Ci fib]
+39.4 +11.1 18 +38 +51 опасность
солнечного
удара
1006.7 1007.0
09 26.04 З 6 4000 м 6/1 750 м
[Cu hum Ac trans Ci fib]
+40.4 +8.3 14 +38 +43 очень
жарко
1003.2 1003.0
12 26.04 З 6 4000 м 6/1 750 м
[Cu hum Ac trans Ci fib]
+39.8 +2.4 10 +36 +37 очень
жарко
1002.9 1003.0 +42.3
15 26.04 З 2 4000 м мгла 4/0
[Ac trans Ci fib]
+34.0 +9.7 23 +33 +33 жарко 1006.0 1006.0
18 26.04 СЗ 2 4000 м мгла 3/0
[Ci fib]
+30.2 +6.2 22 +29 +29 жарко 1007.8 1008.0
21 26.04 С 3 4000 м мгла ясно +27.4 +5.4 25 +26 +26 жарко 1006.5 1007.0
00 27.04 СЗ 2 4000 м мгла 1/0
[Ac trans]
+23.8 +6.9 34 +24 +24 комфорт 1007.4 1007.0
03 27.04 С 3 4000 м мгла ясно +34.0 +7.9 20 +32 +40 жарко 1008.2 1008.0 +22.6
06 27.04 СЗ 6 4000 м 1/1 750 м
[Cu hum]
+41.2 +4.5 11 +38 +45 очень
жарко
1006.9 1007.0
09 27.04 З 5 4000 м 4/3 600 м
[Sc Ac trans]
+43.4 +7.6 12 +41 +46 опасность
перегрева
1004.3 1004.0
12 27.04 СЗ 6 4000 м 4/3 600 м
[Sc Ac trans]
+41.2 +6.0 12 +39 +39 очень
жарко
1003.1 1003.0 +43.5
15 27.04 З 2 4000 м мгла ясно +33.0 +6.6 19 +31 +31 жарко 1006.4 1006.0
18 27.04 штиль 0 4000 м мгла ясно +28.2 +6.2 25 +27 +27 жарко 1008.1 1008.0
21 27.04 штиль 0 4000 м мгла ясно +25.4 +6.1 29 +25 +25 комфорт 1007.0 1007.0
00 28.04 штиль 0 2000 м мгла 4/3 600 м
[Sc Ac trans]
+23.4 +5.7 32 +24 +24 комфорт 1007.7 1008.0
03 28.04 СЗ 2 4000 м мгла 3/3 600 м
[Sc]
+34.4 +5.5 17 +32 +38 жарко 1008.0 1008.0 +22.8
06 28.04 З 2 4000 м 3/3 600 м
[Sc]
+40.0 +3.8 11 +37 +53 опасность
солнечного
удара
1007.4 1007.0
09 28.04 СЗ 4 4000 м 4/3 600 м
[Sc Ac trans]
+42.4 +5.2 11 +40 +46 очень
жарко
1003.4 1003.0
12 28.04 З 5 4000 м 4/3 750 м
[Cu hum Ac trans]
+40.6 +7.4 13 +38 +39 очень
жарко
1002.2 1002.0 +43.4
15 28.04 З 2 4000 м мгла ясно +33.0 +7.8 21 +31 +31 жарко 1004.5 1005.0
18 28.04 СЗ 2 4000 м мгла 1/0
[]
+30.2 +8.6 26 +30 +30 жарко 1005.6 1006.0
21 28.04 СЗ 2 4000 м мгла 1/0
[Ac trans]
+28.2 +8.3 29 +28 +28 жарко 1005.0 1005.0
00 29.04 З 1 4000 м мгла 5/0
[Ac trans Ci fib]
+26.4 +6.0 27 +26 +26 жарко 1006.5 1007.0
03 29.04 З 3 4000 м мгла ясно +33.6 +8.9 22 +32 +40 жарко 1008.5 1009.0 +25.8
06 29.04 С 3 4000 м мгла 6/0
[Ac trans Ci fib]
+40.8 +10.3 16 +39 +53 опасность
солнечного
удара
1007.0 1007.0
09 29.04 З 4 4000 м мгла 6/4 600 м
[Cu Sc Ac trans]
+41.4 +9.1 15 +40 +45 очень
жарко
1004.0 1004.0
12 29.04 З 10 4000 м пыльная буря на расстоянии {дождь} 6/5 600 м
[Cb cap Ac trans]
+39.0 +9.8 17 +37 +37 очень
жарко
1002.7 1003.0 +42.5 0.0
15 29.04 ЮЗ 1 2000 м мгла 4/3 600 м
[Sc Ac trans]
+32.0 +10.0 26 +32 +32 жарко 1005.4 1005.0 0.0
18 29.04 штиль 0 2000 м мгла 5/3 600 м
[Cb calv Ac trans]
+31.0 +11.0 29 +31 +31 жарко 1006.4 1006.0 0.0
21 29.04 З 4 2000 м гроза без осадков 6/5 600 м
[Cb calv Ac trans]
+32.0 +7.8 22 +31 +31 жарко 1006.6 1007.0 0.0
00 30.04 Ю 5 2000 м мгла {гроза} 8/5 600 м
[Cb calv Ac trans]
+31.8 +9.1 25 +31 +31 жарко 1006.7 1007.0 0.0

 

Местоположение метеостанции Nagpur (Maharashtra, Индия): широта 21.10 долгота 79.05 высота над уровнем моря 310 м.

В архиве по умолчанию представлена погода в Nagpur за последнюю неделю. Архивные данные за месяц целиком и за предыдущие месяцы, начиная с января 2011 года, Вы можете получить, выбрав интересующий диапазон дат из раскрывающегося списка и нажав кнопку "Ввод!".

Внимание! Время в таблицах - всемирное. Для получения местного времени необходимо прибавить поправку, которая в Nagpur равна 5.5 ч.

Смотрите также архив погоды в соседних городах и на ближайших метеорологических станциях:

Погода в Wardha (Maharashtra, Индия) (68 км)
Погода в Bramhapuri (Maharashtra, Индия) (100 км)
Погода в Chhindwara (Madhya Pradesh, Индия) (111 км)
Погода в Seoni (Madhya Pradesh, Индия) (121 км)
Погода в Yeotmal (Maharashtra, Индия) (122 км)
Погода в Gondia (Maharashtra, Индия) (126 км)
Погода в Chandrapur (Maharashtra, Индия) (128 км)
Погода в Amraoti (Maharashtra, Индия) (133 км)
Погода в Betul (Madhya Pradesh, Индия) (144 км)
Погода в Pachmarhi (Madhya Pradesh, Индия) (165 км)

Пояснения к столбцам:

Ветер - указаны скорость ветра в м/с - средняя за 10 мин, порывы в срок и между сроками (в фигурных скобках) и направление, откуда дует ветер: С - северный, СВ - северо-восточный, В - восточный, ЮВ - юго-восточный, Ю - южный, ЮЗ - юго-западный, З - западный, СЗ - северо-западный.
Видимость - горизонтальная дальность видимости в метрах или километрах. При видимости от 1 до 10 км при отсутствии осадков обычно наблюдается дымка, при ухудшении видимости до 1 км и менее - туман. В сухую погоду видимость может ухудшаться дымом, пылью или мглою.
Явления - указаны атмосферные явления, наблюдавшиеся в срок или в последний час перед сроком; фигурными скобками обозначены явления, наблюдавшиеся между сроками (за 1-3 часа до срока); квадратными скобками обозначены град или гололедные отложения с указанием их диаметра в мм.
Облачность - указаны через наклонную черту общая и нижняя облачность в баллах и высота нижней границы облаков в метрах; квадратными скобками обозначены формы облаков: Ci - перистые, Cs - перисто-слоистые, Cc - перисто-кучевые, Ac - высококучевые, As - высокослоистые, Sc - слоисто-кучевые, Ns - слоисто-дождевые, Cu - кучевые, Cb - кучево-дождевые. Подробнее классификацию облаков см. в Атласе облаков (PDF).
T - Температура воздуха - температура, измеренная на высоте 2 м над землей.
Td - Температура точки росы - температура, при понижении до которой содержащийся в воздухе водяной пар достигнет насыщения.
f - Относительная влажность воздуха - влажноcть воздуха, измеренная на высоте 2 м над землей.
Te - Эффективная температура - температура, которую ощущает одетый по сезону человек в тени. Характеристика душности погоды. При расчете учитывается влияние влажности воздуха и скорости ветра на теплоощущения человека.
Tes - Эффективная температура на солнце - температура, которую ощущает человек, с поправкой на солнечный нагрев. Характеристика знойности погоды. Зависит от высоты солнца над горизонтом, облачности и скорости ветра. Ночью, в пасмурную погоду, а также при ветре 12 м/с и более поправка равна нулю.
P - Атмосферное давление - приведенное к уровню моря атмосферное давление.
Po - Атмосферное давление - измеренное на уровне метеостанции атмосферное давление.
Tmin - Минимальная температура - минимум температуры воздуха на высоте 2 м над землей.
Tmax - Максимальная температура - максимум температуры воздуха на высоте 2 м над землей.
R - Количество осадков - Количество выпавших осадков за период времени, мм. При наведении курсора мыши на число - период времени, за который выпало указанное количество осадков.
R24 - Количество осадков - Количество выпавших осадков за 24 часа, мм.
S - Снежный покров - Высота снежного покрова, см. При наведении курсора мыши на число - состояние снежного покрова и степень покрытия местности в баллах.